Weather History for West Palm Beach, FL

Change the Weather History Date:

Wednesday, April 30, 2014

  Actual Average Record
Temperature  
Mean Temperature 85 °F 76 °F  
Max Temperature 91 °F 84 °F 99 °F (1971)
Min Temperature 79 °F 68 °F 53 °F (1916)
Degree Days  
Heating Degree Days 0 0  
Month to date heating degree days 0 0  
Since 1 July heating degree days 122 233  
Cooling Degree Days 20 11  
Month to date cooling degree days 341 267  
Year to date cooling degree days 889 695  
Growing Degree Days 35 (Base 50)    
Moisture  
Dew Point 72 °F    
Average Humidity 69    
Maximum Humidity 85    
Minimum Humidity 52    
Precipitation  
Precipitation 0.00 in 0.09 in 4.81 in (1972)
Month to date precipitation 1.04 3.66  
Year to date precipitation 14.92 14.20  
Snow  
Snow 0.00 in - - ()
Month to date snowfall 0.0  
Since 1 July snowfall 0.0  
Snow Depth 0.00 in    
Sea Level Pressure  
Sea Level Pressure 30.02 in    
Wind  
Wind Speed 13 mph (SE)    
Max Wind Speed 22 mph    
Max Gust Speed 28 mph    
Visibility 10 miles    
Events      
T = Trace of Precipitation, MM = Missing Value Source: NWS Daily Summary

Daily Weather History Graph

Daily Weather History Graph

Search for Another Location

Airport:

Trip Planner

Search our weather history database for the weather conditions in past years. The results will help you decide how hot, cold, wet, or windy it might be!

Date:

Astronomy

Apr. 30, 2014 Rise Set
Actual Time 6:43 AM EDT 7:52 PM EDT
Civil Twilight 6:18 AM EDT 8:16 PM EDT
Nautical Twilight 5:49 AM EDT 8:45 PM EDT
Astronomical Twilight 5:20 AM EDT 9:15 PM EDT
Moon 7:46 AM EDT (4/30) 9:25 PM EDT (4/30)
Length of Visible Light 13h 58m
Length of Day
13h 09m
New Moon, 2% of the Moon is Illuminated
Apr 30
New Moon
May 6
First Quarter
May 14
Full
May 21
Last Quarter
May 28
New

Hourly Weather History & Observations

Time (EDT) Temp. Heat Index Dew Point Humidity Pressure Visibility Wind Dir Wind Speed Gust Speed Precip Events Conditions
12:53 AM 80.1 °F 85.1 °F 75.0 °F 85% 30.02 in 10.0 mi SE 11.5 mph - N/A   Mostly Cloudy
1:53 AM 80.1 °F 84.5 °F 73.9 °F 81% 30.00 in 10.0 mi SE 12.7 mph - N/A   Scattered Clouds
2:53 AM 80.1 °F 84.5 °F 73.9 °F 81% 29.96 in 10.0 mi SE 15.0 mph - N/A   Scattered Clouds
3:53 AM 80.1 °F 84.5 °F 73.9 °F 81% 29.96 in 10.0 mi SE 13.8 mph 23.0 mph N/A   Scattered Clouds
4:53 AM 79.0 °F - 73.9 °F 84% 29.97 in 10.0 mi SSE 9.2 mph 19.6 mph N/A   Partly Cloudy
5:53 AM 79.0 °F - 73.9 °F 84% 30.00 in 10.0 mi SSE 5.8 mph - N/A   Mostly Cloudy
6:53 AM 79.0 °F - 73.0 °F 82% 30.01 in 10.0 mi SE 11.5 mph - N/A   Mostly Cloudy
7:53 AM 80.1 °F 83.8 °F 72.0 °F 76% 30.02 in 10.0 mi SSE 9.2 mph - N/A   Scattered Clouds
8:53 AM 82.9 °F 88.0 °F 72.0 °F 69% 30.01 in 10.0 mi SSE 12.7 mph - N/A   Scattered Clouds
9:53 AM 84.0 °F 89.6 °F 72.0 °F 67% 30.04 in 10.0 mi SE 13.8 mph - N/A   Scattered Clouds
10:53 AM 86.0 °F 91.5 °F 71.1 °F 61% 30.05 in 10.0 mi SE 19.6 mph - N/A   Mostly Cloudy
11:53 AM 87.1 °F 92.8 °F 71.1 °F 59% 30.07 in 10.0 mi SE 17.3 mph - N/A   Mostly Cloudy
12:53 PM 87.1 °F 92.8 °F 71.1 °F 59% 30.07 in 10.0 mi SSE 16.1 mph - N/A   Mostly Cloudy
1:53 PM 88.0 °F 92.9 °F 70.0 °F 55% 30.07 in 10.0 mi SSE 17.3 mph - N/A   Mostly Cloudy
2:53 PM 89.1 °F 94.1 °F 70.0 °F 53% 30.04 in 10.0 mi SE 17.3 mph - N/A   Mostly Cloudy
3:53 PM 88.0 °F 93.8 °F 71.1 °F 57% 30.01 in 10.0 mi SE 19.6 mph - N/A   Mostly Cloudy
4:53 PM 84.0 °F 89.0 °F 71.1 °F 65% 30.01 in 10.0 mi SE 19.6 mph - N/A   Mostly Cloudy
5:53 PM 84.0 °F 89.0 °F 71.1 °F 65% 30.01 in 10.0 mi SSE 15.0 mph - N/A   Mostly Cloudy
6:53 PM 82.9 °F 88.0 °F 72.0 °F 69% 30.02 in 10.0 mi SSE 11.5 mph - N/A   Mostly Cloudy
7:53 PM 82.0 °F 86.7 °F 72.0 °F 71% 30.03 in 10.0 mi SSE 9.2 mph - N/A   Mostly Cloudy
8:53 PM 81.0 °F 85.8 °F 73.0 °F 77% 30.04 in 10.0 mi SE 6.9 mph - N/A   Scattered Clouds
9:53 PM 80.1 °F 84.5 °F 73.9 °F 81% 30.05 in 10.0 mi ESE 8.1 mph - N/A   Scattered Clouds
10:53 PM 80.1 °F 84.5 °F 73.9 °F 81% 30.06 in 10.0 mi SE 10.4 mph - N/A   Scattered Clouds
11:53 PM 80.1 °F 84.5 °F 73.9 °F 81% 30.05 in 10.0 mi SE 8.1 mph - N/A   Mostly Cloudy